Terminal Aerodrome Forecast
Issued by NWS

Home | Current Version | Previous Version | Text Only | Print | Product List | Glossary On
Versions: 1 2 3 4 5 6 7 8 9 10 11 12 13 14 15 16 17 18 19 20 21 22 23 24 25 26 27 28 29 30 31 32 33 34 35 36 37 38 39 40 41 42 43 44 45
000
FTUS45 KBOU 252320
TAFAPA
TAF
KAPA 252320Z 2600/2624 31018G28KT P6SM FEW100 SCT140
     FM260300 25012KT P6SM SCT080 BKN140
     FM260600 07008KT P6SM SCT025 BKN060
     FM260800 11008KT P6SM SCT015 OVC025 PROB30 2609/2615 2SM -SN BR
      BKN015
     FM261600 15007KT P6SM FEW025 BKN060
     FM261800 24007KT P6SM SCT060 SCT140=

USA.gov is the U.S. government's official web portal to all federal, state and local government web resources and services.